Location: Paderno d�Adda
(45.6667°N, 9.4333°E)
Time: 04:14:45
(UTC+00:00)

Cosmos 1125 Rocket - Visible Passes

Search period start: 17 January 2021 00:00
Search period end: 27 January 2021 00:00
Orbit: 757 x 780 km, 74.0° (Epoch: 16 January)

Date Brightness Start Highest point End Pass type
(mag) Time Alt. Az. Time Alt. Az. Time Alt. Az.
17 Jan 4.8 06:04:25 10° N 06:09:24 39° ENE 06:14:22 10° SE visible
18 Jan 5.5 05:27:53 10° N 05:32:17 26° NE 05:36:41 10° ESE visible
19 Jan 6.0 04:51:35 10° N 04:55:04 17° NE 04:58:32 10° E visible
20 Jan 6.3 04:15:56 10° NNE 04:17:43 12° NE 04:19:30 10° ENE visible
20 Jan 4.1 05:55:40 10° NNW 06:00:57 62° ENE 06:06:12 10° SSE visible
21 Jan 4.8 05:18:58 10° N 05:23:56 39° ENE 05:28:54 10° SE visible
22 Jan 5.5 04:42:25 10° N 04:46:50 26° NE 04:51:12 10° ESE visible
23 Jan 6.0 04:06:08 10° N 04:09:36 17° NE 04:13:02 10° E visible
23 Jan 3.5 05:47:03 10° NNW 05:52:23 83° WSW 05:57:41 10° SSE visible
24 Jan 6.3 03:30:31 10° NNE 03:32:15 11° NE 03:33:58 10° ENE visible
24 Jan 4.0 05:10:12 10° NNW 05:15:29 61° ENE 05:20:44 10° SSE visible
25 Jan 4.8 04:33:30 10° N 04:38:29 38° ENE 04:43:25 10° SE visible
25 Jan 4.4 06:15:48 10° NW 06:20:26 31° W 06:25:03 10° SSW visible
26 Jan 5.5 03:57:17 11° N 04:01:21 25° NE 04:05:43 10° ESE visible
26 Jan 3.7 05:38:35 10° NNW 05:43:44 51° WSW 05:48:51 10° S visible
26 Jan 5.3 18:36:28 10° S 18:37:52 18° SSE 18:37:52 18° SSE visible
